ANA254 RJFF-RJTT

Flight info

Callsign ANA254
Flight time 1h 9m
Altitude 35000
Route IPRIR Y231 OMKAT Y235 FLUTE Y23 ARTIC Y71 XAC
Aircraft B78X/H-SADE1E2E3GHIJ3J5M1P2RWXY/LB2D1

Departure

Time 2026-04-30 13:19
Airport Fukuoka Airport (RJFF)

Arrival

Time 2026-04-30 14:28
Airport Tokyo Haneda International Airport (RJTT)
Time Latitude Longitude Altitude Speed Heading
2026-04-30 13:07 33.59847 130.44653 49 ft 0 kts 60°
2026-04-30 13:11 33.59842 130.44643 50 ft 2 kts 66°
2026-04-30 13:11 33.59837 130.44626 50 ft 2 kts 67°
2026-04-30 13:11 33.59831 130.44609 49 ft 2 kts 65°
2026-04-30 13:11 33.59824 130.44595 50 ft 1 kts 48°
2026-04-30 13:12 33.59815 130.44586 50 ft 1 kts 26°
2026-04-30 13:12 33.59803 130.44582 50 ft 1 kts
2026-04-30 13:12 33.59790 130.44580 50 ft 1 kts 349°
2026-04-30 13:13 33.59765 130.44595 49 ft 2 kts 327°
2026-04-30 13:13 33.59758 130.44600 50 ft 0 kts 329°
2026-04-30 13:16 33.59761 130.44597 50 ft 1 kts 329°
2026-04-30 13:17 33.59780 130.44536 50 ft 7 kts 249°
2026-04-30 13:17 33.59752 130.44472 50 ft 9 kts 241°
2026-04-30 13:17 33.59668 130.44338 50 ft 8 kts 173°
2026-04-30 13:18 33.59645 130.44353 50 ft 13 kts 151°
2026-04-30 13:18 33.58705 130.44994 50 ft 135 kts 150°
2026-04-30 13:18 33.57755 130.45647 147 ft 171 kts 148°
2026-04-30 13:19 33.56726 130.46332 753 ft 167 kts 150°
2026-04-30 13:19 33.55729 130.46968 1419 ft 162 kts 152°
2026-04-30 13:19 33.54725 130.47586 1943 ft 165 kts 152°
2026-04-30 13:19 33.53647 130.48241 2289 ft 181 kts 152°
2026-04-30 13:20 33.52473 130.48958 2632 ft 197 kts 152°
2026-04-30 13:20 33.51199 130.49739 2977 ft 214 kts 152°
2026-04-30 13:20 33.49796 130.50600 3324 ft 233 kts 152°
2026-04-30 13:20 33.48305 130.51524 3705 ft 251 kts 151°
2026-04-30 13:21 33.46708 130.52521 4155 ft 266 kts 151°
2026-04-30 13:21 33.45060 130.53548 4872 ft 270 kts 150°
2026-04-30 13:21 33.43384 130.54593 5646 ft 271 kts 151°
2026-04-30 13:22 33.40035 130.56668 7130 ft 271 kts 152°
2026-04-30 13:22 33.38374 130.57693 7801 ft 271 kts 152°
2026-04-30 13:22 33.34998 130.59784 9041 ft 278 kts 152°
2026-04-30 13:23 33.33254 130.60866 9619 ft 285 kts 152°
2026-04-30 13:23 33.29660 130.63144 10613 ft 301 kts 146°
2026-04-30 13:24 33.27335 130.67555 11123 ft 343 kts 102°
2026-04-30 13:24 33.28199 130.73361 11951 ft 368 kts 76°
2026-04-30 13:25 33.29703 130.79286 13009 ft 379 kts 76°
2026-04-30 13:25 33.31212 130.85396 14047 ft 392 kts 76°
2026-04-30 13:26 33.33544 130.94936 15619 ft 410 kts 76°
2026-04-30 13:26 33.35159 131.01579 16724 ft 421 kts 76°
2026-04-30 13:27 33.36801 131.08351 17718 ft 432 kts 77°
2026-04-30 13:28 33.39068 131.18953 19310 ft 443 kts 84°
2026-04-30 13:28 33.40151 131.26222 20309 ft 452 kts 85°
2026-04-30 13:28 33.40698 131.29954 20807 ft 456 kts 85°
2026-04-30 13:29 33.41797 131.37445 21722 ft 465 kts 85°
2026-04-30 13:29 33.42933 131.45105 22627 ft 472 kts 85°
2026-04-30 13:30 33.44659 131.56842 23918 ft 484 kts 86°
2026-04-30 13:31 33.45836 131.64877 24734 ft 492 kts 86°
2026-04-30 13:31 33.47612 131.77057 26021 ft 499 kts 86°
2026-04-30 13:32 33.48790 131.85184 26861 ft 503 kts 86°
2026-04-30 13:32 33.49987 131.93478 27545 ft 509 kts 86°
2026-04-30 13:33 33.51191 132.01898 28214 ft 516 kts 86°
2026-04-30 13:33 33.52399 132.10358 28827 ft 522 kts 86°
2026-04-30 13:34 33.53016 132.14674 29155 ft 525 kts 86°
2026-04-30 13:34 33.54886 132.27624 30041 ft 536 kts 84°
2026-04-30 13:35 33.55748 132.32031 30337 ft 541 kts 79°
2026-04-30 13:35 33.58103 132.40665 30898 ft 551 kts 74°
2026-04-30 13:36 33.60726 132.49303 31416 ft 557 kts 73°
2026-04-30 13:36 33.62046 132.53676 31687 ft 560 kts 73°
2026-04-30 13:36 33.64679 132.62506 32218 ft 565 kts 74°
2026-04-30 13:37 33.66000 132.66962 32594 ft 564 kts 75°
2026-04-30 13:37 33.68595 132.75784 33241 ft 565 kts 75°
2026-04-30 13:38 33.71214 132.84717 33782 ft 568 kts 75°
2026-04-30 13:38 33.72520 132.89165 34117 ft 569 kts 75°
2026-04-30 13:38 33.75123 132.98068 34775 ft 569 kts 75°
2026-04-30 13:39 33.77754 133.07121 34864 ft 573 kts 75°
2026-04-30 13:40 33.81684 133.20653 34864 ft 572 kts 75°
2026-04-30 13:40 33.84280 133.29622 34861 ft 572 kts 75°
2026-04-30 13:41 33.86871 133.38625 34854 ft 571 kts 75°
2026-04-30 13:41 33.89477 133.47704 34857 ft 572 kts 75°
2026-04-30 13:42 33.92060 133.56706 34857 ft 572 kts 75°
2026-04-30 13:42 33.95861 133.70050 34871 ft 572 kts 75°
2026-04-30 13:43 33.98413 133.79011 34876 ft 571 kts 75°
2026-04-30 13:43 34.00966 133.88043 34883 ft 572 kts 75°
2026-04-30 13:44 34.03468 133.97150 34885 ft 570 kts 78°
2026-04-30 13:44 34.05320 134.06361 34886 ft 566 kts 83°
2026-04-30 13:45 34.07800 134.20276 34887 ft 564 kts 83°
2026-04-30 13:46 34.09479 134.29517 34886 ft 564 kts 82°
2026-04-30 13:46 34.11160 134.38733 34885 ft 564 kts 82°
2026-04-30 13:47 34.12830 134.47965 34893 ft 564 kts 82°
2026-04-30 13:47 34.14494 134.57201 34899 ft 564 kts 82°
2026-04-30 13:48 34.16159 134.66484 34899 ft 564 kts 83°
2026-04-30 13:48 34.17807 134.75719 34903 ft 563 kts 83°
2026-04-30 13:49 34.19437 134.84921 34906 ft 562 kts 83°
2026-04-30 13:49 34.21075 134.94203 34905 ft 562 kts 83°
2026-04-30 13:50 34.22681 135.03413 34904 ft 563 kts 83°
2026-04-30 13:50 34.25034 135.17322 34910 ft 562 kts 83°
2026-04-30 13:51 34.26585 135.26515 34916 ft 562 kts 83°
2026-04-30 13:51 34.28132 135.35763 34928 ft 561 kts 83°
2026-04-30 13:52 34.29687 135.45091 34938 ft 561 kts 83°
2026-04-30 13:52 34.31216 135.54309 34942 ft 561 kts 83°
2026-04-30 13:53 34.32739 135.63518 34950 ft 560 kts 83°
2026-04-30 13:53 34.34268 135.72823 34953 ft 560 kts 83°
2026-04-30 13:54 34.35788 135.82112 34967 ft 559 kts 83°
2026-04-30 13:54 34.37291 135.91339 34972 ft 559 kts 83°
2026-04-30 13:55 34.38784 136.00589 34982 ft 560 kts 83°
2026-04-30 13:55 34.40271 136.09808 34982 ft 560 kts 83°
2026-04-30 13:56 34.41766 136.19127 34987 ft 559 kts 83°
2026-04-30 13:56 34.43238 136.28351 34989 ft 559 kts 83°
2026-04-30 13:57 34.44708 136.37607 34990 ft 559 kts 83°
2026-04-30 13:57 34.46170 136.46848 34989 ft 558 kts 83°
2026-04-30 13:58 34.48340 136.60702 34988 ft 557 kts 83°
2026-04-30 13:59 34.49780 136.69948 34986 ft 558 kts 84°
2026-04-30 13:59 34.51217 136.79210 34995 ft 557 kts 83°
2026-04-30 14:00 34.52636 136.88406 35002 ft 557 kts 84°
2026-04-30 14:00 34.53962 137.02287 35005 ft 549 kts 94°
2026-04-30 14:01 34.54026 137.11566 35010 ft 547 kts 96°
2026-04-30 14:01 34.54047 137.20756 35013 ft 546 kts 96°
2026-04-30 14:02 34.54091 137.29982 35011 ft 546 kts 95°
2026-04-30 14:02 34.54145 137.39230 35023 ft 547 kts 95°
2026-04-30 14:03 34.54198 137.48412 35017 ft 544 kts 95°
2026-04-30 14:03 34.54234 137.57596 35023 ft 544 kts 95°
2026-04-30 14:04 34.54265 137.66690 35022 ft 541 kts 96°
2026-04-30 14:04 34.54288 137.75841 35034 ft 540 kts 96°
2026-04-30 14:05 34.54304 137.84952 34948 ft 536 kts 95°
2026-04-30 14:05 34.54312 137.89459 34379 ft 536 kts 95°
2026-04-30 14:05 34.54314 137.93974 33248 ft 546 kts 95°
2026-04-30 14:06 34.54310 137.98590 32257 ft 553 kts 95°
2026-04-30 14:06 34.54307 138.07873 31046 ft 548 kts 95°
2026-04-30 14:07 34.54293 138.16983 30218 ft 537 kts 95°
2026-04-30 14:07 34.54281 138.21523 29731 ft 533 kts 95°
2026-04-30 14:07 34.54268 138.25970 29278 ft 528 kts 95°
2026-04-30 14:08 34.54256 138.34787 28367 ft 521 kts 92°
2026-04-30 14:08 34.54834 138.39108 27841 ft 526 kts 75°
2026-04-30 14:08 34.57138 138.47432 26979 ft 519 kts 72°
2026-04-30 14:09 34.58290 138.51494 26532 ft 515 kts 73°
2026-04-30 14:09 34.59443 138.55641 25950 ft 511 kts 73°
2026-04-30 14:09 34.61643 138.63719 25212 ft 500 kts 72°
2026-04-30 14:10 34.62714 138.67680 25087 ft 495 kts 73°
2026-04-30 14:10 34.63782 138.71639 24804 ft 491 kts 73°
2026-04-30 14:10 34.64829 138.75529 24352 ft 489 kts 73°
2026-04-30 14:10 34.65892 138.79456 23912 ft 486 kts 71°
2026-04-30 14:11 34.67312 138.83099 23458 ft 482 kts 57°
2026-04-30 14:11 34.69176 138.86453 23039 ft 478 kts 52°
2026-04-30 14:11 34.71123 138.89702 22611 ft 474 kts 52°
2026-04-30 14:11 34.73038 138.92938 22183 ft 471 kts 52°
2026-04-30 14:12 34.74913 138.96208 21756 ft 468 kts 53°
2026-04-30 14:12 34.76721 138.99451 21357 ft 465 kts 54°
2026-04-30 14:12 34.78511 139.02713 20656 ft 458 kts 54°
2026-04-30 14:12 34.80249 139.05913 19833 ft 452 kts 54°
2026-04-30 14:13 34.81967 139.09093 19013 ft 445 kts 54°
2026-04-30 14:13 34.83640 139.12195 18178 ft 439 kts 54°
2026-04-30 14:13 34.85308 139.15292 17327 ft 431 kts 54°
2026-04-30 14:13 34.86920 139.18291 16495 ft 424 kts 54°
2026-04-30 14:14 34.88517 139.21265 15653 ft 418 kts 54°
2026-04-30 14:14 34.90098 139.24211 14812 ft 410 kts 54°
2026-04-30 14:14 34.91627 139.27063 14000 ft 403 kts 54°
2026-04-30 14:14 34.93148 139.29900 13193 ft 395 kts 55°
2026-04-30 14:15 34.94622 139.32654 12398 ft 388 kts 55°
2026-04-30 14:15 34.96088 139.35393 11636 ft 379 kts 55°
2026-04-30 14:15 34.97494 139.38023 11166 ft 362 kts 55°
2026-04-30 14:15 34.98838 139.40538 10700 ft 348 kts 56°
2026-04-30 14:16 35.00143 139.42981 10248 ft 334 kts 56°
2026-04-30 14:16 35.01376 139.45285 9905 ft 318 kts 56°
2026-04-30 14:16 35.02569 139.47514 9607 ft 303 kts 57°
2026-04-30 14:16 35.03695 139.49625 9373 ft 293 kts 57°
2026-04-30 14:17 35.04799 139.51694 9103 ft 291 kts 58°
2026-04-30 14:17 35.05901 139.53764 8833 ft 289 kts 58°
2026-04-30 14:17 35.06992 139.55815 8566 ft 287 kts 59°
2026-04-30 14:17 35.08077 139.57860 8301 ft 285 kts 59°
2026-04-30 14:18 35.09161 139.59898 8037 ft 283 kts 60°
2026-04-30 14:18 35.10220 139.61899 7777 ft 281 kts 60°
2026-04-30 14:18 35.12330 139.65894 7270 ft 276 kts 60°
2026-04-30 14:19 35.14396 139.69792 6781 ft 271 kts 61°
2026-04-30 14:19 35.15424 139.71735 6538 ft 268 kts 61°
2026-04-30 14:19 35.16434 139.73653 6300 ft 266 kts 61°
2026-04-30 14:20 35.17430 139.75540 6073 ft 264 kts 61°
2026-04-30 14:20 35.18415 139.77403 6005 ft 256 kts 61°
2026-04-30 14:20 35.20573 139.80618 5964 ft 243 kts 26°
2026-04-30 14:21 35.22237 139.80957 5801 ft 241 kts 351°
2026-04-30 14:21 35.23874 139.80469 5414 ft 248 kts 343°
2026-04-30 14:21 35.27255 139.79260 4716 ft 255 kts 345°
2026-04-30 14:22 35.28974 139.78682 4402 ft 256 kts 345°
2026-04-30 14:22 35.32460 139.78271 3721 ft 252 kts 27°
2026-04-30 14:22 35.33950 139.79323 3489 ft 246 kts 38°
2026-04-30 14:23 35.36752 139.81725 3002 ft 243 kts 37°
2026-04-30 14:23 35.39525 139.83949 2536 ft 227 kts 36°
2026-04-30 14:24 35.41820 139.86270 2186 ft 200 kts 46°
2026-04-30 14:24 35.43069 139.86969 2152 ft 197 kts
2026-04-30 14:25 35.45745 139.86375 1985 ft 200 kts 335°
2026-04-30 14:25 35.48140 139.84665 1453 ft 193 kts 330°
2026-04-30 14:26 35.50391 139.83048 936 ft 181 kts 332°
2026-04-30 14:26 35.51472 139.82288 701 ft 175 kts 332°
2026-04-30 14:26 35.53521 139.80837 240 ft 164 kts 333°
2026-04-30 14:27 35.54482 139.80150 44 ft 157 kts 333°
2026-04-30 14:27 35.55365 139.79530 37 ft 123 kts 330°
2026-04-30 14:27 35.55960 139.79100 38 ft 66 kts 324°
2026-04-30 14:28 35.56141 139.78790 37 ft 11 kts 241°
2026-04-30 14:28 35.56071 139.78770 37 ft 12 kts 156°
2026-04-30 14:28 35.55991 139.78827 37 ft 13 kts 150°
2026-04-30 14:28 35.55906 139.78888 37 ft 14 kts 148°
2026-04-30 14:29 35.55721 139.79018 37 ft 16 kts 150°
2026-04-30 14:29 35.55529 139.79149 37 ft 9 kts 168°
2026-04-30 14:30 35.55391 139.78937 37 ft 11 kts 209°
2026-04-30 14:31 35.55254 139.78987 37 ft 4 kts 191°
2026-04-30 14:31 35.55217 139.78923 37 ft 0 kts 239°
2026-04-30 14:31 35.55215 139.78919 37 ft 0 kts 240°